Location: Newark
(40.9833°N, 0.0333°W)
Time: 19:35:33
(UTC+00:00)

N. Korean satellite - Visible Passes

Search period start: 21 September 2020 00:00
Search period end: 01 October 2020 00:00
Orbit: 455 x 503 km, 97.2° (Epoch: 21 September)

Date Brightness Start Highest point End Pass type
(mag) Time Alt. Az. Time Alt. Az. Time Alt. Az.
22 Sep 8.5 05:06:44 10° NNE 05:10:08 35° E 05:13:27 10° SSE visible
23 Sep 9.8 04:41:32 10° NE 04:43:59 17° E 04:46:22 10° SE visible
25 Sep 7.4 05:21:53 10° NNE 05:25:28 57° E 05:29:00 10° S visible
26 Sep 9.1 04:56:18 10° NE 04:59:22 25° E 05:02:24 10° SSE visible
27 Sep 10.0 04:31:36 10° ENE 04:33:10 12° E 04:34:43 10° ESE visible
29 Sep 8.2 05:11:17 10° NNE 05:14:43 40° E 05:18:04 10° S visible
30 Sep 9.7 04:45:56 10° NE 04:48:34 19° E 04:51:08 10° SE visible
